Time,TemperatureF,DewpointF,PressureIn,WindDirection,WindDirectionDegrees,WindSpeedMPH,WindSpeedGustMPH,Humidity,HourlyPrecipIn,Conditions,Clouds,dailyrainin,SoftwareType,DateUTC
2013-11-14 00:00:00,67.4,28.0,29.94,North,349,0.0,3.0,23,0.00,,,0.00,weatherlink.com 1.10,2013-11-14 07:00:00,
2013-11-14 00:15:00,65.3,27.0,29.93,NNE,25,5.0,5.0,24,0.00,,,0.00,weatherlink.com 1.10,2013-11-14 07:15:00,
2013-11-14 00:30:00,65.0,27.0,29.94,NNE,23,4.0,5.0,24,0.00,,,0.00,weatherlink.com 1.10,2013-11-14 07:30:00,
2013-11-14 00:45:00,64.2,27.0,29.93,NNE,29,4.0,4.0,24,0.00,,,0.00,weatherlink.com 1.10,2013-11-14 07:45:00,
2013-11-14 01:00:00,63.7,26.0,29.94,NNE,20,5.0,7.0,24,0.00,,,0.00,weatherlink.com 1.10,2013-11-14 08:00:00,
2013-11-14 01:15:00,63.2,27.0,29.94,NNE,20,4.0,5.0,25,0.00,,,0.00,weatherlink.com 1.10,2013-11-14 08:15:00,
2013-11-14 01:30:00,63.2,26.0,29.94,NNE,27,4.0,5.0,24,0.00,,,0.00,weatherlink.com 1.10,2013-11-14 08:30:00,
2013-11-14 01:45:00,63.2,26.0,29.94,NNE,25,4.0,5.0,24,0.00,,,0.00,weatherlink.com 1.10,2013-11-14 08:45:00,
2013-11-14 02:00:00,62.6,26.0,29.94,NNE,23,5.0,6.0,25,0.00,,,0.00,weatherlink.com 1.10,2013-11-14 09:00:00,
2013-11-14 02:15:00,62.3,26.0,29.94,NNE,27,4.0,6.0,25,0.00,,,0.00,weatherlink.com 1.10,2013-11-14 09:15:00,
2013-11-14 02:31:00,61.6,25.0,29.94,NNE,16,5.0,6.0,25,0.00,,,0.00,weatherlink.com 1.10,2013-11-14 09:31:00,
2013-11-14 02:46:00,61.1,26.0,29.95,NNE,24,4.0,6.0,26,0.00,,,0.00,weatherlink.com 1.10,2013-11-14 09:46:00,
2013-11-14 03:01:00,60.1,25.0,29.94,NNE,23,1.0,2.0,26,0.00,,,0.00,weatherlink.com 1.10,2013-11-14 10:01:00,
2013-11-14 03:16:00,59.9,26.0,29.94,NNE,32,3.0,3.0,27,0.00,,,0.00,weatherlink.com 1.10,2013-11-14 10:16:00,
2013-11-14 03:31:00,60.6,26.0,29.94,NNE,27,3.0,3.0,27,0.00,,,0.00,weatherlink.com 1.10,2013-11-14 10:31:00,
2013-11-14 03:46:00,60.3,26.0,29.94,NNE,23,5.0,5.0,27,0.00,,,0.00,weatherlink.com 1.10,2013-11-14 10:46:00,
2013-11-14 04:01:00,59.7,26.0,29.94,NNE,26,4.0,5.0,28,0.00,,,0.00,weatherlink.com 1.10,2013-11-14 11:01:00,
2013-11-14 04:16:00,59.3,26.0,29.94,NNE,23,4.0,4.0,28,0.00,,,0.00,weatherlink.com 1.10,2013-11-14 11:16:00,
2013-11-14 04:31:00,59.5,26.0,29.94,NNE,13,2.0,4.0,28,0.00,,,0.00,weatherlink.com 1.10,2013-11-14 11:31:00,
2013-11-14 04:46:00,58.4,26.0,29.94,NNE,28,3.0,4.0,29,0.00,,,0.00,weatherlink.com 1.10,2013-11-14 11:46:00,
2013-11-14 05:01:00,58.0,26.0,29.95,NNE,25,4.0,5.0,29,0.00,,,0.00,weatherlink.com 1.10,2013-11-14 12:01:00,
2013-11-14 05:16:00,57.5,26.0,29.95,NNE,27,3.0,4.0,30,0.00,,,0.00,weatherlink.com 1.10,2013-11-14 12:16:00,
2013-11-14 05:31:00,57.6,26.0,29.95,NNE,23,4.0,4.0,30,0.00,,,0.00,weatherlink.com 1.10,2013-11-14 12:31:00,
2013-11-14 05:46:00,57.0,26.0,29.96,NNE,26,0.0,4.0,30,0.00,,,0.00,weatherlink.com 1.10,2013-11-14 12:46:00,
2013-11-14 06:01:00,57.5,26.0,29.96,NNW,348,1.0,2.0,30,0.00,,,0.00,weatherlink.com 1.10,2013-11-14 13:01:00,
2013-11-14 06:16:00,56.0,26.0,29.96,NNE,32,3.0,5.0,32,0.00,,,0.00,weatherlink.com 1.10,2013-11-14 13:16:00,
2013-11-14 06:32:00,56.2,27.0,29.95,North,355,1.0,4.0,33,0.00,,,0.00,weatherlink.com 1.10,2013-11-14 13:32:00,
2013-11-14 06:49:00,55.7,27.0,29.96,NNE,32,3.0,6.0,33,0.00,,,0.00,weatherlink.com 1.10,2013-11-14 13:49:00,
2013-11-14 07:05:00,56.2,27.0,29.96,NNE,18,2.0,6.0,32,0.00,,,0.00,weatherlink.com 1.10,2013-11-14 14:05:00,
2013-11-14 07:23:00,56.7,26.0,29.96,NNE,20,2.0,3.0,31,0.00,,,0.00,weatherlink.com 1.10,2013-11-14 14:23:00,
2013-11-14 07:40:00,56.8,27.0,29.97,NE,34,0.0,5.0,32,0.00,,,0.00,weatherlink.com 1.10,2013-11-14 14:40:00,
2013-11-14 07:58:00,59.2,28.0,29.97,NE,41,0.0,1.0,30,0.00,,,0.00,weatherlink.com 1.10,2013-11-14 14:58:00,
2013-11-14 08:14:00,61.1,28.0,29.97,NE,41,0.0,1.0,29,0.00,,,0.00,weatherlink.com 1.10,2013-11-14 15:14:00,
2013-11-14 08:32:00,61.7,29.0,29.97,NNE,25,1.0,4.0,29,0.00,,,0.00,weatherlink.com 1.10,2013-11-14 15:32:00,
2013-11-14 08:49:00,63.5,27.0,29.98,NNW,343,1.0,1.0,25,0.00,,,0.00,weatherlink.com 1.10,2013-11-14 15:49:00,
2013-11-14 09:07:00,64.6,26.0,29.98,WNW,283,1.0,2.0,23,0.00,,,0.00,weatherlink.com 1.10,2013-11-14 16:07:00,
2013-11-14 09:23:00,66.0,26.0,29.98,West,277,1.0,1.0,22,0.00,,,0.00,weatherlink.com 1.10,2013-11-14 16:23:00,
2013-11-14 09:41:00,66.5,26.0,29.98,NW,311,0.0,2.0,22,0.00,,,0.00,weatherlink.com 1.10,2013-11-14 16:41:00,
2013-11-14 09:59:00,69.8,28.0,29.98,SSE,152,0.0,1.0,21,0.00,,,0.00,weatherlink.com 1.10,2013-11-14 16:59:00,
2013-11-14 10:16:00,70.5,26.0,29.98,SSW,210,0.0,3.0,19,0.00,,,0.00,weatherlink.com 1.10,2013-11-14 17:16:00,
2013-11-14 10:33:00,70.6,28.0,29.98,SW,215,0.0,2.0,20,0.00,,,0.00,weatherlink.com 1.10,2013-11-14 17:33:00,
2013-11-14 10:50:00,73.0,26.0,29.98,SSW,204,2.0,2.0,17,0.00,,,0.00,weatherlink.com 1.10,2013-11-14 17:50:00,
2013-11-14 11:08:00,74.0,26.0,29.97,SW,228,0.0,1.0,17,0.00,,,0.00,weatherlink.com 1.10,2013-11-14 18:08:00,
2013-11-14 11:24:00,75.5,28.0,29.97,West,261,1.0,2.0,17,0.00,,,0.00,weatherlink.com 1.10,2013-11-14 18:24:00,
2013-11-14 11:42:00,75.8,28.0,29.96,ENE,60,1.0,2.0,17,0.00,,,0.00,weatherlink.com 1.10,2013-11-14 18:42:00,
2013-11-14 12:17:00,76.5,28.0,29.94,SE,143,0.0,2.0,17,0.00,,,0.00,weatherlink.com 1.10,2013-11-14 19:17:00,
2013-11-14 12:51:00,76.6,30.0,29.91,WSW,238,0.0,4.0,18,0.00,,,0.00,weatherlink.com 1.10,2013-11-14 19:51:00,
2013-11-14 13:08:00,78.0,30.0,29.90,WSW,238,1.0,4.0,17,0.00,,,0.00,weatherlink.com 1.10,2013-11-14 20:08:00,
2013-11-14 13:26:00,78.3,28.0,29.89,WSW,253,3.0,4.0,16,0.00,,,0.00,weatherlink.com 1.10,2013-11-14 20:26:00,
2013-11-14 13:42:00,79.0,28.0,29.88,NNW,345,1.0,5.0,15,0.00,,,0.00,weatherlink.com 1.10,2013-11-14 20:42:00,
2013-11-14 14:00:00,79.9,27.0,29.87,WSW,251,3.0,5.0,14,0.00,,,0.00,weatherlink.com 1.10,2013-11-14 21:00:00,
2013-11-14 14:18:00,80.8,26.0,29.86,SSW,206,0.0,5.0,13,0.00,,,0.00,weatherlink.com 1.10,2013-11-14 21:18:00,
2013-11-14 14:35:00,80.5,29.0,29.85,SW,218,3.0,6.0,15,0.00,,,0.00,weatherlink.com 1.10,2013-11-14 21:35:00,
2013-11-14 14:53:00,80.8,27.0,29.84,WSW,242,1.0,5.0,14,0.00,,,0.00,weatherlink.com 1.10,2013-11-14 21:53:00,
2013-11-14 15:09:00,81.2,26.0,29.83,WNW,290,3.0,7.0,13,0.00,,,0.00,weatherlink.com 1.10,2013-11-14 22:09:00,
2013-11-14 15:27:00,81.0,27.0,29.83,SW,219,0.0,4.0,14,0.00,,,0.00,weatherlink.com 1.10,2013-11-14 22:27:00,
2013-11-14 15:44:00,81.3,26.0,29.82,SE,125,1.0,2.0,13,0.00,,,0.00,weatherlink.com 1.10,2013-11-14 22:44:00,
2013-11-14 16:01:00,82.5,25.0,29.81,West,276,1.0,2.0,12,0.00,,,0.00,weatherlink.com 1.10,2013-11-14 23:01:00,
2013-11-14 16:18:00,81.6,26.0,29.81,WNW,290,0.0,2.0,13,0.00,,,0.00,weatherlink.com 1.10,2013-11-14 23:18:00,
2013-11-14 16:36:00,80.8,27.0,29.80,ENE,73,0.0,1.0,14,0.00,,,0.00,weatherlink.com 1.10,2013-11-14 23:36:00,
2013-11-14 16:53:00,82.1,27.0,29.80,WSW,246,0.0,1.0,13,0.00,,,0.00,weatherlink.com 1.10,2013-11-14 23:53:00,
2013-11-14 17:11:00,81.2,28.0,29.79,WSW,251,1.0,2.0,14,0.00,,,0.00,weatherlink.com 1.10,2013-11-15 00:11:00,
2013-11-14 17:27:00,80.0,28.0,29.78,WSW,238,0.0,0.0,15,0.00,,,0.00,weatherlink.com 1.10,2013-11-15 00:27:00,
2013-11-14 17:45:00,76.4,28.0,29.79,WSW,238,0.0,0.0,17,0.00,,,0.00,weatherlink.com 1.10,2013-11-15 00:45:00,
2013-11-14 18:02:00,75.3,27.0,29.78,WSW,239,0.0,1.0,17,0.00,,,0.00,weatherlink.com 1.10,2013-11-15 01:02:00,
2013-11-14 18:20:00,73.4,29.0,29.78,NE,34,1.0,2.0,19,0.00,,,0.00,weatherlink.com 1.10,2013-11-15 01:20:00,
2013-11-14 18:37:00,72.2,28.0,29.78,NE,37,2.0,3.0,19,0.00,,,0.00,weatherlink.com 1.10,2013-11-15 01:37:00,
2013-11-14 18:54:00,73.1,26.0,29.78,NE,48,3.0,5.0,17,0.00,,,0.00,weatherlink.com 1.10,2013-11-15 01:54:00,
2013-11-14 19:11:00,74.4,25.0,29.78,NE,54,5.0,8.0,16,0.00,,,0.00,weatherlink.com 1.10,2013-11-15 02:11:00,
2013-11-14 19:29:00,74.1,25.0,29.77,ENE,68,5.0,8.0,16,0.00,,,0.00,weatherlink.com 1.10,2013-11-15 02:29:00,
2013-11-14 19:45:00,73.5,26.0,29.77,ENE,60,3.0,7.0,17,0.00,,,0.00,weatherlink.com 1.10,2013-11-15 02:45:00,
2013-11-14 20:03:00,72.6,25.0,29.77,NE,52,3.0,6.0,17,0.00,,,0.00,weatherlink.com 1.10,2013-11-15 03:03:00,
2013-11-14 20:20:00,73.6,26.0,29.77,ENE,58,3.0,7.0,17,0.00,,,0.00,weatherlink.com 1.10,2013-11-15 03:20:00,
2013-11-14 20:38:00,73.2,26.0,29.76,East,87,3.0,6.0,17,0.00,,,0.00,weatherlink.com 1.10,2013-11-15 03:38:00,
2013-11-14 20:55:00,72.6,25.0,29.75,ENE,64,3.0,5.0,17,0.00,,,0.00,weatherlink.com 1.10,2013-11-15 03:55:00,
2013-11-14 21:12:00,72.4,25.0,29.75,ENE,57,5.0,8.0,17,0.00,,,0.00,weatherlink.com 1.10,2013-11-15 04:12:00,
2013-11-14 21:29:00,72.4,26.0,29.75,ENE,69,4.0,7.0,18,0.00,,,0.00,weatherlink.com 1.10,2013-11-15 04:29:00,
2013-11-14 21:47:00,72.1,26.0,29.75,NE,56,5.0,7.0,18,0.00,,,0.00,weatherlink.com 1.10,2013-11-15 04:47:00,
2013-11-14 22:04:00,72.5,27.0,29.75,ENE,64,4.0,8.0,18,0.00,,,0.00,weatherlink.com 1.10,2013-11-15 05:04:00,
2013-11-14 22:21:00,72.4,26.0,29.74,NE,54,6.0,9.0,18,0.00,,,0.00,weatherlink.com 1.10,2013-11-15 05:21:00,
2013-11-14 22:38:00,72.5,27.0,29.73,East,91,6.0,8.0,18,0.00,,,0.00,weatherlink.com 1.10,2013-11-15 05:38:00,
2013-11-14 22:56:00,73.4,27.0,29.73,ENE,67,4.0,8.0,18,0.00,,,0.00,weatherlink.com 1.10,2013-11-15 05:56:00,
2013-11-14 23:13:00,69.5,28.0,29.73,SSE,154,1.0,4.0,21,0.00,,,0.00,weatherlink.com 1.10,2013-11-15 06:13:00,
2013-11-14 23:30:00,67.0,29.0,29.72,NNW,328,0.0,2.0,24,0.00,,,0.00,weatherlink.com 1.10,2013-11-15 06:30:00,
2013-11-14 23:48:00,72.0,27.0,29.71,East,89,5.0,9.0,19,0.00,,,0.00,weatherlink.com 1.10,2013-11-15 06:48:00,